カタログに戻る

AO-95

運用中アマチュア無線SSO
NORAD 43770·PAYLOAD·🇺🇸 United States

打ち上げ Dec 3, 2018 から Vandenberg Space Force Base

Loading…

次のパス (今後24時間)

TLE

最新Source: Space-Track

元期: Sep 14, 2026, 14:57 UTC

1 43770U 18099N   26257.62311903  .00008878  00000-0  32330-3 0  9990
2 43770  97.4286 317.6039 0009013  41.0365 319.1551 15.28407823426872

AllMySatでAO-95をリアルタイム追跡

Download on the App Store